Location: ???????
(56.2167°N, 38.0500°E)
Time: 21:01:41
(UTC+00:00)

Meteor 1-14 Rocket - Pass Details

Date: 13 August 2025
Orbit: 833 x 917 km, 81.3° (Epoch: 17 April)

Event Time Altitude Azimuth Distance (km) Brightness Sun altitude
Exits shadow 22:56:04 20° 237° (WSW) 1,961 5.6 -17.0°
Maximum altitude 22:59:42 41° 296° (WNW) 1,289 5.2 -16.8°
Drops below altitude 10° 23:05:13 10° 6° (N) 2,566 7.9 -16.5°
Enters shadow 00:03:34 -68° 206° (SSW) 12,724 10.1 -12.4°
